Terug naar catalogus

STARLINK-31889

ActiefCommunicatieVLEO
NORAD 59847·PAYLOAD·🇺🇸 United States

Gelanceerd May 23, 2024 vanaf Cape Canaveral Space Force Station

Loading…

Volgende Passages (komende 24 uur)

TLE

VersSource: CelesTrak SupGP

Epoch: Sep 14, 2026, 20:51 UTC

1 59847C 24097N   26257.86923611 -.00004047  00000+0 -14660-3 0  2576
2 59847  43.0023 286.3968 0001416 268.5429 119.8950 15.27574200    14

Volg STARLINK-31889 in realtime met AllMySat

Download on the App Store